depornauta-radio-uai-190x780-izquierda
depornauta-radio-uai-190x780-derecha
atletismo
23/01/2012

Siempre primero

A mediados de diciembre obtuvo el sexto puesto entre los 2.300 participantes del Maratón de Castellón en España donde corrió los 42 kilómetros en 2h18m09s que lo situaron a tan sólo nueve segundos de la marca B clasificatoria para los Juegos Olímpicos que anhela lograr en abril próximo en Rotterdam. Como forma de calentar motores, retornó a las pistas argentinas y lo hizo con un triunfo porque el atleta santafesino Nicolás Ternavasio subió a la cima del podio de la segunda edición de los 10K CRAS donde su esposa Verónica Ramírez se colgó la medalla de bronce en la clasificación general femenina.

Nacido hace veintiocho años en el pueblo de San Vicente, Nicolás Ternavasio conquistó la Copa Challenger al sumar dos victorias consecutivas en esta prueba organizada por el Club Rafaelino de Atletismo y Servicios gracias a correr los diez kilómetros en 31 minutos y 5 segundos que lo convirtieron en el más veloz de los 116 competidores que cruzaron la meta. Con una velocidad promedio de tres minutos y seis segundos por kilómetro a pesar del cansancio que arrastra de la temporada 2011 en la que compitió en tres maratones ya que además de los 42K españoles logró un cuerto puesto en el Iberoamericano de Caracas y ganó en Rosario, Nico Ternavasio superó por un minuto y once segundos a su escolta, Héctor Gómez de la localidad de Lehmann, mientras que el entrerriano Walter Jacob arribó tercero con 34m33s. seguido del cordobés Eduardo González y el local José Ledesma, cuarto y quinto con 35m45s y 36m33s respectivamente.

Entre las mujeres se impuso Isabel Ponce al correr los diez kilómetros en 38 minutos y 27 segundos que equivalen a un ritmo de tres minutos y cincuenta para cada mil metros. En segundo lugar se situó Fabiana Gaitán con 39 minutos exactos, ni un segundo más ni uno menos, por delante de Verónica Ramírez, esposa de Ternavasio, cuyos 44 minutos y 9 segundos le valieron la tercera ubicación entre las veinte participantes de esta segunda edición.

Corredor Edad Sexo Ciudad Tiempo Prom.
1 TERNAVASIO, NICOLAS 28 M SAN VICENTE 31:05:41 3:06:34
2 GOMEZ, HECTOR PASCUAL 25 M LEHMANN 32:16:32 3:13:39
3 JACOB, WALTER 24 M CRESPO (E.R.) 34:33:39 3:27:22
4 GONZALEZ, EDUARDO FELICIANO 26 M SUCO (CBA) 35:45:00 3:34:30
5 LEDESMA, JOSE 41 M RAFAELA 36:33:00 3:39:18
6 MANSILLA, CARLOS 29 M AÑATUYA (S.E.) 37:11:26 3:43:09
7 ORUNDEZ AYALA, JUAN CARLOS 28 M RAFAELA 37:46:01 3:46:36
8 PEREYRA, JUAN MARCELO 37 M PARANA (E.R.) 38:25:00 3:50:30
9 PONCE, ISABEL PATRICIA 37 F ESPERANZA 38:27:00 3:50:42
10 KURIGER, FERNANDO 30 M RAFAELA 38:30:13 3:51:01
11 D´ESPOSITO, MIGUEL OMAR 44 M ESPERANZA 38:47:45 3:52:47
12 GAITAN. FABIANA 41 F SANTA FE 39:00:16 3:54:02
13 BETTIG, GABRIEL 27 M FRANCK 39:04:00 3:54:24
14 RODRIGUEZ, OSVALDO 37 M RAFAELA 39:30:00 3:57:00
15 SIMI, LUIS EDUARDO 40 M BARRANCAS 39:53:09 3:59:19
16 NIEVAS, RICARDO 55 M LA LUCILA 41:15:09 4:07:31
17 CORDOBA, MILLAN 51 M SANTA FE 41:50:00 4:11:00
18 AGUILERA, BRUNO 16 M PORTEÑA (CBA) 42:00:00 4:12:00
19 AGUILERA, TOMAS GUILLERMO 14 M PORTEÑA (CBA) 42:02:08 4:12:13
20 MAGALLANES, ARIEL 20 M RAFAELA 42:04:00 4:12:24
21 REHLING, RUBEN IRMO 45 M ESPERANZA 42:21:26 4:14:09
22 REINHARDT, MARIANO 36 M RAFAELA 42:44:07 4:16:25
23 SICURELLA, JORGE 37 M RAFAELA 42:48:07 4:16:49
24 SOSA, OSCAR DARIO 36 M BANDERA (S.E) 43:14:00 4:19:24
25 STENDERUP, DAVID 39 M RAFAELA 43:27:23 4:20:44
26 CARAVARIO, FRANCO 19 M RAFAELA 43:37:23 4:21:44
27 CULASSO, EDUARDO 50 M RAFAELA 43:46:45 4:22:41
28 BONETTO, CESAR 39 M RAFAELA 44:07:26 4:24:45
29 RAMIREZ, VERONICA JUDIT 26 F SAN VICENTE 44:09:13 4:24:55
30 GUERRERO, LUIS ALBERTO 40 M SANTA FE 44:44:00 4:28:24
31 TOLEDO, GONZALO 21 M RAFAELA 44:45:00 4:28:30
32 CASSINA, ANDRES 34 M RAFAELA 44:57:23 4:29:44
33 PAROLA, SILVIO 52 M RAFAELA 45:02:20 4:30:14
34 PERREN, HECTOR A. 53 M S.J. NORTE 45:05:54 4:30:35
35 TERNAVASIO, FABRICIO ANDRES 25 M SAN VICENTE 45:30:00 4:33:00
36 CARPIO, WALTER H. 33 M RAFAELA 45:45:45 4:34:35
37 GUERRERO, GASTON 36 M RAFAELA 45:46:45 4:34:41
38 GOMEZ, HUGO OMAR CD M SAN CRISTOBAL 45:51:32 4:35:09
39 PAREDES, WALTER 23 M SAN CRISTOBAL 45:57:32 4:35:45
40 DRUBICH, DIEGO 42 M RAFAELA 46:03:00 4:36:18
41 BISIO, FERNANDO DAMIAN 34 M COLASTINE NORTE 46:45:00 4:40:30
42 MARTINEZ, RAFAEL 36 M SANTA FE 46:58:09 4:41:49
43 RAMINELLI, DANIEL 33 M RAFAELA 47:06:32 4:42:39
44 SANMARTINO, GUSTAVO H. 38 M RAFAELA 47:09:00 4:42:54
45 CATTALIN, SANTIAGO FEDERICO 57 M SANTO TOME 47:10:00 4:43:00
46 BORLLE, MARIANA 42 F RAFAELA 47:23:00 4:44:18
47 BERMUDEZ, RODOLFO 41 M SANTA FE 47:30:06 4:45:01
48 DONNET, JOSE 47 M RAFAELA 47:41:09 4:46:07
49 LLULL, DIEGO 30 M RAFAELA 47:42:00 4:46:12
50 ORTIZ, PEDRO 47 M RAFAELA 47:56:00 4:47:36
51 VEGA, JAVIER 40 M SANTA FE 48:10:00 4:49:00
52 BOLZICO, LUCIANO 33 M SUNCHALES 48:12:00 4:49:12
53 PERETTI, DIEGO 42 M RAFAELA 48:18:36 4:49:52
54 TOLEDO, LUIS 50 M RAFAELA 48:20:08 4:50:01
55 ALVARENGA, PABLO 19 M PARANA (E.R.) 48:34:36 4:51:28
56 WEINER, JAVIER 35 M RAFAELA 48:39:32 4:51:57
57 BARTOMIOLI, MARTIN 37 M RAFAELA 48:48:00 4:52:48
58 CAZZANIGA, CESAR LUIS 32 M RAFAELA 48:59:13 4:53:55
59 VALENTINUZZI, IVANA 43 F SANTO TOME 49:13:13 4:55:19
60 CHICCO, RICARDO 47 M RAFAELA 49:18:00 4:55:48
61 GAMARRA, SERGIO RAUL 44 M SAN JORGE 49:21:36 4:56:10
62 BRUNO, JOSE 52 M RAFAELA 49:27:32 4:56:45
63 YOSSEN, DANIEL 43 M FRANCK 49:33:00 4:57:18
64 DIAZ, CLAUDIO JULIO 49 M MORON (B.AIRES) 49:37:00 4:57:42
65 BENITEZ, ANGEL EUGENIO 57 M SANTA FE 49:47:00 4:58:42
66 RODRIGUEZ MESON, SILVINA 38 F RAMONA 49:52:00 4:59:12
67 VILLARREAL, DAMIAN 25 M RAFAELA 49:55:16 4:59:32
68 SANTI, MIRKO SEBASTIAN 33 M RAFAELA 49:56:01 4:59:36
69 TORANZO, FERNANDO 17 M PORTEÑA (CBA) 49:56:39 4:59:40
70 MARZIONI, FERNANDO 45 M RAFAELA 51:09:09 5:06:55
71 GARCIA, RODRIGO 30 M SUSANA 52:21:00 5:14:06
72 POSSETTO, FERNANDO 45 M RAFAELA 52:22:00 5:14:12
73 GARCIA, MARIA JOSE 28 F SANTA FE 52:34:07 5:15:25
74 CARABALLO, MONICA ALEJANDRA 36 F PARANA (E.R.) 52:37:45 5:15:47
75 MANFREDI, MARIANO ANDRES 38 M RAFAELA 52:53:00 5:17:18
76 CARPIO, AUGUSTO CARLOS 62 M PARANA (E.R.) 52:56:45 5:17:41
77 COSTMAGNA, GABRIEL HERNAN 38 M RAFAELA 53:22:00 5:20:12
78 SAUCEDO, ANTONIO 50 M RAFAELA 53:22:29 5:20:15
79 DONNET, ROCIO 19 F RAFAELA 53:47:23 5:22:44
80 GHIBERTO, DARIO 50 M RAFAELA 53:48:00 5:22:48
81 DEMARTIN, ROCIO 19 F RAFAELA 54:02:01 5:24:12
82 D’ELIA, ARIEL 35 M SANTA FE 54:05:48 5:24:35
83 CARDOZO, ELBA SUSANA 37 F EST. CLUCELLAS 54:28:54 5:26:53
84 SANCHIS, ANIBAL 36 M RAFAELA 54:32:51 5:27:17
85 ARGAÑARAZ, OSCAR V. 56 M RAFAELA 55:00:50 5:30:05
86 BERTOLINI, JULIAN LEONEL 19 M RAFAELA 55:08:50 5:30:53
87 GUNTERN, GUILLERMO 45 M RAFAELA 55:22:00 5:32:12
88 PEON, GUSTAVO 43 M RAFAELA 55:37:00 5:33:42
89 VICENTIN, MONICA A. 43 F SANTA FE 55:42:00 5:34:12
90 CAPELLINO, JOSE L. 43 M SUNCHALES 55:46:46 5:34:41
91 MATEO, VICTOR ENRIQUE 59 M SAN FRANCISCO (CBA) 55:53:03 5:35:18
92 ROSSO, CARLOS A. 61 M RAFAELA 55:57:21 5:35:44
93 VELIZ, JUAN JOSE 30 M RAFAELA 56:01:48 5:36:11
94 BARONETTI, GERMAN 32 M RAFAELA 56:03:47 5:36:23
95 SOVRANO, MARIA GUADALUPE 46 F SANTA FE 56:04:57 5:36:30
96 BARAVALLE, JOSE M. 62 M SANTA FE 56:52:05 5:41:12
97 VENCE, LUIS 43 M RAFAELA 56:58:00 5:41:48
98 ARAGON, LUISA 35 F AÑATUYA (S.E.) 57:25:00 5:44:30
99 KLOSTER, SOFIA 15 F RAFAELA 57:45:58 5:46:36
100 BLANZARI, REINALDO 57 M SAN FRANCISCO (CBA) 57:49:14 5:46:55
101 PIUZZI, ROCIO SOLEDAD 18 F RAFAELA 57:54:39 5:47:28
102 FOGOLIN, AGUSTIN CARLOS 19 M RAFAELA 57:55:00 5:47:30
103 MORILLA, JUAN 62 M SANTA FE 58:08:43 5:48:52
104 AVILA, LUCIO 16 M RAFAELA 58:17:32 5:49:45
105 RODRIGUEZ, FEDERICO 15 M RAFAELA 58:18:00 5:49:48
106 GINEZ, JAVIER 38 M RAFAELA 58:28:00 5:50:48
107 FAVARO, MAURICIO 39 M RAFAELA 58:55:12 5:53:31
108 BISIO, ANDRES ALFREDO 26 M SANTA FE 58:57:00 5:53:42
109 BECCACECE, DIEGO 32 M RAFAELA 61:26:29 6:08:39
110 GARETTO, HORACIO 51 M RAFAELA 61:44:00 6:10:24
111 TRONCOSO, YANINA 35 F RAFAELA 62:11:25 6:13:08
112 DAVICINO, RENE 57 M RAFAELA 62:17:00 6:13:42
113 BARONETTI, MONICA 50 F RAFAELA 62:37:00 6:15:42
114 DOCE, GRACIELA 60 F COLASTINE NORTE 64:16:00 6:25:36
115 PEREYRA, GABRIELA 17 F PARANA (E.R.) 66:25:00 6:38:30
116 VELIZ, FRANCISCO 78 M RAFAELA 74:24:00 7:26:24

Tags: , , , , , ,

opinión de los lectores


EL DEPORNAUTA no publicará comentarios inapropiados ni acusaciones infundadas. Tampoco tendrán cabida las opiniones que incluyan insultos o groseras descalificaciones. Los comentarios publicados son de exclusiva responsabilidad de sus autores que podrán ser pasibles de las sanciones legales que correspondan por sus dichos

Deja tu comentario!

mas noticias

Murió un corredor en los 21K Córdoba

Un participante de 27 años falleció mientras recibía la medalla finisher tras cruzar la meta del Medio Maratón de La Docta.

maraton piernas 1

Cárcel para combatir el doping

Impulsan una ley para sancionar con 5 años de prisión a deportistas, entrenadores y médicos involucrados en casos de dopaje.

doping 4

Maldita droga

Campeón francés de atletismo, el corredor Héni Kechi fue condenado a nueve meses de prisión por posesión de heroína, cocaína y marihuana.

kechi heni 1

Primera dama del maratón

La esposa del presidente de Kenia, Margaret Kenyatta corrió los 42K de Londres.

kenia primera dama 1

Puma presentó sus zapatillas Faas 500 V3

Lanzamiento oficial de la tercera generación del calzado de running ideal para entrenar o competir.

zapatillas puma faas 500 v3 par

Corré el Nativa Tour 5K

Comenzó el circuito más federal y solidario del atletismo de calle argentino con inscripción gratuita en sus 16 fechas en todo el país.

nativa tour auto largada 1

Los mejores maratonistas son chubutenses

Joaquín Arbe y Karina Neipan se coronaron campeones argentinos de 42K con sendas victorias en La Pampa.

neipan karina ruta 1

Cárcel para combatir el doping

Impulsan una ley para sancionar con 5 años de prisión a deportistas, entrenadores y médicos involucrados en casos de dopaje.

doping 4

Tradición rutera

La 71º Vuelta al Uruguay tuvo como vencedor a Mariano De Fino tras pedalear 1.341 kilómetros en 34 horas.

vuelta uruguay peloton 1

Feliz Día Mundial de la Bicicleta

Celebramos la jornada del medio de transporte no contaminante utilizado en ciclismo y triatlón.

bicicleta beneficios

Argentino doble campeón mundial

El ciclista paralímpico entrerriano Rodrigo López ganó dos medallas de oro globales en México.

rodrigo lopez pista 1

Los siete principios del ciclismo

Pautas para capitalizar al máximo tu esfuerzo arriba de una bicicleta de MTB, ruta o pista.

mtb doble futalaufquen 1

Sorpresa en la París Roubaix

Niki Terpstra ganó la carrera clásica de un día más importante del mundo al vencer a los campeones mundiales Fabián Cancellara y Tom Boonen.

terpstra paris roubaix 1

Triple campeón

El ciclista Alberto Contador ganó por tercera vez la Vuelta al País Vasco al pedalear 841 kilómetros en 21 horas y 9 minutos.

contador alberto primer plano 1

Cárcel para combatir el doping

Impulsan una ley para sancionar con 5 años de prisión a deportistas, entrenadores y médicos involucrados en casos de dopaje.

doping 4

Nadaron desde Brasil a Uruguay

Ángela Marchetti y Adriano Motta completaron 19 kilómetros a pura brazada en 3 horas y 20 minutos.

motta adriano aguas abiertas 2

“El legado de Michael Phelps no corre peligro”

El presidente de la Federación Internacional de Natación habló sobre el regreso del máximo campeón de la historia olímpica.

phelps festejo 1

Michael Phelps volverá a competir

Máximo campeón de la historia olímpica, el mejor nadador de todos los tiempos regiresará a la pileta en el Grand Prix de Arizona.

200 Fly Finals

El deporte no tiene edad

A sus 83 años, la clavadista olímpica mexicana Ibone Belausteguigoitia continúa compitiendo a nivel internacional en categoría Master.

belausteguigoitia

Colgó las antiparras

Triple campeona olímpica, la plusmarquista australiana Stephanie Rice se retiró de la natación a raíz de una lesión en su hombro derecho.

rice stephanie primer plano 1

Así entrenan los campeones

El plusmarquista húngaro Lazlo Cseh viajó a Estados Unidos donde realizó una preparación intensiva junto al número uno mundial Ryan Lochte.

lochte cseh 1

Cárcel para combatir el doping

Impulsan una ley para sancionar con 5 años de prisión a deportistas, entrenadores y médicos involucrados en casos de dopaje.

doping 4

Triatlón, radio y rocanrol

Locutor que le pone la voz a la Rock&Pop, Alejandro Nagy visitó nuestro programa para hablar de su pasión por el deporte de las tres disciplinas.

nagy alejandro monitor 1

Ganadora todo terreno

La representante olímpico chilena Bárbara Riveros conquistó el Triatlón X-Terra de Nueva Zelanda.

riveros barbara mtb 1

Triatlón estilo Radiohead

El bajista inglés Colin Greenwood competirá en una prueba combinada para recaudar fondos destinados a una niña que padece leucemia.

radiohead bajista 1

Falleció un triatleta en el IronMan 70.3 Brasil

Tiago Pereira murió de un paro cardíaco que se habría producido por una descarga eléctrica al tocar una estructura metálica en la llegada.

tiago pereira 1

Nutrición para Triatlón

Consejos alimenticios aplicables a todas las edades y niveles deportivos para aprovechar al máximo los entrenamientos mejorando los resultados competitivos.

sendra pedestrismo la paz

Zapatillas Puma con más comodidad y menor peso

Conocé la nueva versión del calzado de running FAAS 500 V3 ideal tanto para entrenar como competir.

zapatilas-puma-faas-500-v3

Corrieron 243 Km. en el desierto

Se realizó el Maratón des Sables en las dunas del Sahara con 1.021 competidores registrándose 104 abandonos.

maraton desierto sahara 1

Nutrición para Triatlón

Consejos alimenticios aplicables a todas las edades y niveles deportivos para aprovechar al máximo los entrenamientos mejorando los resultados competitivos.

sendra pedestrismo la paz

Zapatillas Puma con más comodidad y menor peso

Conocé la nueva versión del calzado de running FAAS 500 V3 ideal tanto para entrenar como competir.

zapatilas-puma-faas-500-v3

Exámenes médicos para deportistas

Conocé los estudios cardiológicos específicos que previenen patologías asintomáticas y ayudan a planificar el entrenamiento.

tcba corredora 1

El Gran Pez

Una mujer de 56 años atrapó un atún de 412 kilos que constituyen un récord mundial de caña con línea.

pez 1

Running solidario

Deborah Slythe correrá 50 kilómetros desde Haedo hasta Luján para reunir fondos contra el cáncer de mama.

slythe deborah arena 1

Anfibios todo terreno

En el Lago del Rocío en Pilar se disputó un acuatlón cross que tuvo como vencedores a Juan Villarruel y Andrea Etchegaray. RESULTADOS.

acuatlon cross largada 1

Falleció Gabriel García Márquez

Premio Nobel de literatura, el escritor colombiano Gabriel García Márquez murió a los 87 años dejando una obra que incluye narraciones deportivas.

garcia marquez 1

River le ganó a Boca

Tras una década sin victorias en La Bombonera, el equipo millonario venció 2 a 1 al conjunto xeneize por la 10º fecha del torneo Clausura. VIDEO GOLES.

river festejo bombonera 1

Nuevos futbolistas, nuevas figuras

Te contamos quienes son los nuevos talentos juveniles cuyos goles y gambetas los convierten en protagonistas del torneo Final.

acosta boca river

Maradona volvería a jugar

A sus 53 años y tras 16 temporadas de su retiro, el mejor futbolista de la historia se pondría los botines para escribir un nuevo capítulo deportivo.

maradona china 1

Lo dejaron a gamba

Al futbolista polaco Robert Lewandowski le robaron las cuatro ruedas de su auto tras firmar un contrato de 90 millones de euros.

auto lewandowski 1

Ganó River, empató Boca

Los millonarios vencieron de local a Gimnasia de La Plata y los xeneizes igualaron sin goles de visitante ante Newell’s Old Boys de Rosario.

river gimnasia 2

Balón de Oro para Ronaldo

El delantero portugués del Real Madrid recibió el premio al mejor jugador de 2013 relegando a Lionel Messi al segundo lugar.

ronaldo real madrid festejo 1

El alumno superó al maestro

En el duelo de tenistas suizos, Stanislas Wawrinka venció a Roger Federer en la final del Masters 1000 de Montecarlo.

wawrinka festejo 1

Federer venció a Djokovic

El tenista suizo derrotó al Nº2 mundial clasificándose a la final del Masters 1000 de Montecarlo.

federer drive polvo 1

Increíble pero real

Ganador de ocho títulos en esta antesala de Roland Garros, Rafael Nadal perdió en sets corridos ante David Ferrer en el Masters 1000 de Montecarlo.

nadal reves primer plano 1

Argentinazo en Brasil

El tenista cordobés Facundo Argüello se consagró campeón del Challenger de Itajaí al vencer en la final al porteño Diego Schwartzman.

arguello facundo reves 1

Djokovic venció a Nadal

El tenista serbio derrotó al número uno del ranking mundial conquistando su cuarto título en el Masters 1000 de Miami en los Estados Unidos.

djokovic reves 1

Entre los mejores del mundo

El tenista paralímpico argentino Gustavo Fernández se coronó subcampeón del Cajun Classic en los Estados Unidos.

fernandez gustavo tenis silla de ruedas 2

Del Potro no jugará en todo 2014

El tenista tandilense será operado en su muñeca izquierda y recién regresará al circuito ATP en enero del año próximo.

TENNIS-ATP-CHN-SRB-ARG

Resultados Triatlón Santa Elena

Clasificación oficial de la sexta fecha del campeonato entrerriano del deporte de las tres disciplinas.

triatlon santa elena natacion 1

Resultados Triatlón San Miguel del Monte

Clasificación oficial de la primera edición de la prueba combinada bonaerense.

triatlon san miguel monte natacion 1

Resultados Triatlón LeiMan Chascomús

Clasificación oficial de la segunda edición del clásico de la laguna bonaerense.

triatlon leiva chascomus natacion 1

Resultados Triatlón San Pedro

Clasificación oficial de la quinta fecha del campeonato del norte bonaerense.

triatlon san pedro ciclismo 2

Resultados Triatlón Diamante

Clasificación oficial de la quinta fecha del campeonato entrerriano del deporte de las tres disciplinas.

confalonieri ignacio ciclismo 2

Resultados Triatlón San Pedro

Clasificación oficial de la cuarta fecha del campeonato del norte bonaerense.

triatlon san pedro pedestrismo 1

Resultados Triatlón La Paz Elite

Clasificación oficial de la Copa Panamericana elite profesional disputada en Entre Ríos.

taccone llegada la paz 1

Consejos para pedalear más rápido

Recomendaciones para mejorar la cadencia tanto en ciclismo como triatlón.

diez sebastian ciclismo 2

Triple oro para Miguelena

El nadador marplatense conquistó los títulos nacionales de 50, 100 y 200 metros pecho del campeonato argentino donde logró la mejor marca técnica.

miguelena pecho 1

Liebres nocturnas

Nadia Rodríguez ganó la Corrida de Cipolletti en Río Negro donde Matías Roht escoltó al brasilero Gilmar Lopes en el podio masculino.

cipolletti largada 1

Triunfo argentino en Uruguay

La corredora bonaerense Nadia Rodríguez ganó los 8K Doble San Antonio en Piriápolis donde sumó su tercera victoria de la temporada.

maraton uruguay largada nocturna 1

En la cima del podio

El ciclista santafesino Demis Aleman conquistó la Vuelta a la Laguna de Chascomús donde superó a las principales figuras a nivel nacional.

aleman demis ciclismo 1

Regreso con gloria

Recuperaron la cápsula y el globo desde donde saltó Féliz Baumgartner batiendo tres récords mundiales y quebrando la barrera del sonido.

felix baumgartner 2

Abandonar nunca, rendirse jamás

Montañista y corredor de fondo, Fernando Vilardebó, narró sus vivencias a lo largo de los 42 kilómetros del Maratón de Buenos Aires.

vilardebo 2

Feliz Día Mundial de la Bicicleta

Celebramos la jornada del medio de transporte no contaminante utilizado en ciclismo y triatlón.

bicicleta beneficios

Falleció Gabriel García Márquez

Premio Nobel de literatura, el escritor colombiano Gabriel García Márquez murió a los 87 años dejando una obra que incluye narraciones deportivas.

garcia marquez 1

Triatlón, radio y rocanrol

Locutor que le pone la voz a la Rock&Pop, Alejandro Nagy visitó nuestro programa para hablar de su pasión por el deporte de las tres disciplinas.

nagy alejandro monitor 1

Puma presentó sus zapatillas Faas 500 V3

Lanzamiento oficial de la tercera generación del calzado de running ideal para entrenar o competir.

zapatillas puma faas 500 v3 par

Corré el Nativa Tour 5K

Comenzó el circuito más federal y solidario del atletismo de calle argentino con inscripción gratuita en sus 16 fechas en todo el país.

nativa tour auto largada 1

Bodas de plata con el running

El 26 de abril se realizará la 25º edición de la Corrida de Reconquista con $60.000 en premios y el sorteo de una moto entre todos los inscriptos.

reconquista maraton largada 1

Nutrición para Triatlón

Consejos alimenticios aplicables a todas las edades y niveles deportivos para aprovechar al máximo los entrenamientos mejorando los resultados competitivos.

sendra pedestrismo la paz

Tradición rutera

La 71º Vuelta al Uruguay tuvo como vencedor a Mariano De Fino tras pedalear 1.341 kilómetros en 34 horas.

vuelta uruguay peloton 1

Nadaron desde Brasil a Uruguay

Ángela Marchetti y Adriano Motta completaron 19 kilómetros a pura brazada en 3 horas y 20 minutos.

motta adriano aguas abiertas 2

Ganadora todo terreno

La representante olímpico chilena Bárbara Riveros conquistó el Triatlón X-Terra de Nueva Zelanda.

riveros barbara mtb 1

El deporte no tiene edad

A sus 83 años, la clavadista olímpica mexicana Ibone Belausteguigoitia continúa compitiendo a nivel internacional en categoría Master.

belausteguigoitia

El running de América del Sur tiene cita en Uruguay

Abrieron las inscripciones del Medio Maratón Corré Montevideo que, además de los 21K, tendrá pruebas de 10 K y 5K.

montevideo maraton 1

América del Sur tiene al mejor ciclista del mundo

El colombiano Carlos Betancur lidera el ranking internacional de ruta tras ganar la París Niza en Francia.

betancur carlos llegada festejo 1

Un triatlón de 5.673 Km.

La ultramaratonista Norma Bastidas intentará un récord mundial al nadar 153 kilómetros, pedalear 4.410 y correr 1.110 en menos de 45 días.

bastidas norma pedestrismo 1

Triatlón, radio y rocanrol

Locutor que le pone la voz a la Rock&Pop, Alejandro Nagy visitó nuestro programa para hablar de su pasión por el deporte de las tres disciplinas.

nagy alejandro monitor 1

Exámenes médicos para deportistas

Conocé los estudios cardiológicos específicos que previenen patologías asintomáticas y ayudan a planificar el entrenamiento.

tcba corredora 1

Alejandro Nagy en Eldepornauta RADIO

Hoy en nuestro programa nos visitará el locutor que le pone la voz a la Rock&Pop para hablar de música y su pasión por el triatlón.

nagy alejandro locutor 1

“El running te ordena la vida”

La corredora Clarisa Ríos contó en Eldepornauta RADIO como dejó el cigarrillo hasta convertirse en una referente del atletismo de calle.

clarisa rios sprint 1

“Más piletas, mejor educación y mayor control antidoping”

El entrenador Rodolfo Sacco habló en Eldepornauta RADIO sobre la actualidad de la natación argentina.

arino julia primer plano 1

TCba Cardiología en Eldepornauta RADIO

Hoy mirá por web o teléfono celular nuestro programa 146 con los doctores Edgardo Castro y Pablo Trapote, especialistas en estudios médicos para deportistas.

tcba-cinta-mujer-1-620x400

La natación es el deporte más importante del mundo

Beneficios y ventajas de entrenar en pileta aún cuando practiques otra disciplina.

natacion generico 4